GW0208 Weather Reports


Display with metric or nautical units.
time (UTC)temp
F
wind
direction
speed
MPH
gust
MPH
rain 1hr
in
rain 24hr
in
rain mn
in
humidity
%
barometer
mb
20260505124005 58 11 8.0 21.0 0.00 0.17 0.00 71 1012.8
20260505123503 58 10 9.0 21.0 0.00 0.18 0.00 68 1012.8
20260505123003 57 3 8.0 23.0 0.00 0.19 0.00 66 1012.6
20260505122503 56 24 8.0 25.0 0.00 0.19 0.00 69 1012.6
20260505122221 57 40 9.0 25.0 0.00 0.19 0.00 69 1012.6
20260505121505 57 42 8.0 23.0 0.00 0.20 0.00 70 1012.4
20260505121005 57 35 9.0 23.0 0.00 0.20 0.00 68 1012.7
20260505120505 57 18 9.0 21.0 0.00 0.20 0.00 70 1012.7
20260505120005 57 13 8.0 21.0 0.00 0.20 0.00 67 1012.8
20260505115505 56 20 7.0 18.0 0.00 0.20 0.00 69 1012.7
20260505115219 56 36 7.0 18.0 0.00 0.20 0.00 69 1012.9
20260505114503 57 18 10.0 25.0 0.00 0.20 0.00 73 1012.7
20260505114005 57 14 10.0 25.0 0.00 0.20 0.00 70 1012.9
20260505113720 57 15 9.0 25.0 0.00 0.20 0.00 71 1012.7
20260505113217 56 13 10.0 18.0 0.00 0.20 0.00 71 1012.8
20260505112720 56 11 8.0 21.0 0.00 0.20 0.00 74 1012.8
20260505112003 57 12 8.0 21.0 0.00 0.24 0.00 71 1012.9
20260505111503 57 27 8.0 23.0 0.00 0.26 0.00 70 1013.1
20260505111003 57 38 7.0 23.0 0.00 0.26 0.00 69 1012.7
20260505110505 57 30 6.0 23.0 0.00 0.26 0.00 70 1012.6
20260505110218 58 7 7.0 23.0 0.00 0.26 0.00 67 1012.7
20260505102005 57 5 7.0 18.0 0.00 0.26 0.00 69 1013.0
20260505101505 56 21 7.0 18.0 0.00 0.26 0.00 70 1013.0
20260505101003 57 10 7.0 18.0 0.00 0.26 0.00 68 1013.3
20260505100503 56 5 7.0 18.0 0.00 0.26 0.00 69 1013.0
20260505100003 55 18 6.0 14.0 0.00 0.26 0.00 70 1012.9
20260505095505 55 31 5.0 14.0 0.00 0.26 0.00 70 1013.2
20260505095003 56 28 5.0 16.0 0.00 0.26 0.00 69 1013.0
20260505094505 56 28 7.0 16.0 0.00 0.26 0.00 68 1013.0
20260505094005 56 28 6.0 18.0 0.00 0.26 0.00 69 1013.0
20260505093505 56 23 6.0 18.0 0.00 0.26 0.00 69 1013.1
20260505093003 57 12 7.0 16.0 0.00 0.26 0.00 69 1012.8
20260505092503 56 6 7.0 16.0 0.00 0.26 0.00 69 1013.1
20260505092003 56 6 7.0 21.0 0.00 0.26 0.00 69 1013.2
20260505091505 56 14 8.0 21.0 0.00 0.26 0.00 68 1013.3
20260505091005 56 34 8.0 16.0 0.00 0.26 0.00 69 1013.0
20260505090503 56 32 9.0 16.0 0.00 0.26 0.00 71 1013.1
20260505090005 56 18 9.0 16.0 0.00 0.26 0.00 70 1013.3
20260505085505 56 22 8.0 16.0 0.00 0.26 0.00 71 1013.1
20260505085010 55 13 8.0 18.0 0.00 0.26 0.00 72 1013.1
20260505084717 55 7 8.0 18.0 0.00 0.26 0.00 72 1013.1
20260505084003 55 23 7.0 18.0 0.00 0.26 0.00 74 1013.3
20260505083503 55 26 7.0 18.0 0.00 0.26 0.00 74 1013.1
20260505083006 55 16 8.0 18.0 0.00 0.26 0.00 73 1013.2
20260505082718 55 6 8.0 18.0 0.00 0.26 0.00 74 1013.1
20260505082003 55 11 5.0 16.0 0.00 0.26 0.00 75 1013.3
20260505081503 55 13 5.0 16.0 0.00 0.26 0.00 75 1012.9
20260505081219 55 15 5.0 16.0 0.00 0.26 0.00 76 1013.1
20260505080505 55 33 4.0 14.0 0.00 0.26 0.00 77 1013.3
20260505080008 54 36 4.0 14.0 0.00 0.26 0.00 79 1013.2
20260505075505 54 42 4.0 12.0 0.00 0.26 0.00 81 1013.1
20260505075005 53 33 5.0 14.0 0.00 0.26 0.00 83 1013.2
20260505074718 53 28 4.0 16.0 0.00 0.26 0.00 84 1013.2
20260505074219 52 22 4.0 16.0 0.00 0.26 0.00 85 1013.2
20260505073718 52 30 3.0 14.0 0.00 0.26 0.00 88 1013.4
20260505073217 52 41 2.0 12.0 0.00 0.26 0.00 90 1013.3
20260505072503 52 54 1.0 9.0 0.00 0.26 0.00 92 1013.3
20260505072005 51 24 1.0 9.0 0.00 0.26 0.00 92 1013.2
20260505071505 50 9 1.0 7.0 0.00 0.26 0.00 92 1013.1
20260505071003 50 23 1.0 7.0 0.00 0.26 0.00 92 1013.2
20260505070505 50 47 2.0 9.0 0.00 0.26 0.00 92 1013.2
20260505070005 51 38 3.0 12.0 0.00 0.26 0.00 92 1013.1
20260505065503 50 15 3.0 12.0 0.00 0.27 0.00 92 1013.4
20260505065005 50 11 2.0 14.0 0.00 0.28 0.00 92 1013.2
20260505064503 50 7 1.0 14.0 0.00 0.29 0.00 92 1013.3
20260505064219 50 28 2.0 14.0 0.00 0.30 0.00 92 1013.3
20260505063503 50 8 3.0 12.0 0.00 0.32 0.00 92 1013.0
20260505063005 50 3 2.0 12.0 0.00 0.32 0.00 93 1013.2
20260505062505 50 34 3.0 12.0 0.00 0.34 0.00 93 1013.1
20260505062003 50 41 4.0 12.0 0.00 0.35 0.00 93 1013.4
20260505061505 50 29 4.0 12.0 0.00 0.37 0.00 93 1013.2
20260505061003 50 28 4.0 12.0 0.00 0.39 0.00 94 1013.1
20260505060504 50 31 4.0 12.0 0.00 0.41 0.00 94 1013.3
20260505060005 50 37 3.0 12.0 0.00 0.44 0.00 94 1013.2
20260505055720 50 38 3.0 12.0 0.00 0.44 0.00 94 1013.1
20260505055003 50 36 3.0 12.0 0.00 0.45 0.00 94 1013.2
20260505054718 50 36 4.0 14.0 0.00 0.45 0.00 94 1013.1
20260505054003 50 34 3.0 14.0 0.00 0.45 0.00 94 1013.0
20260505053503 50 12 4.0 16.0 0.00 0.45 0.00 95 1013.0
20260505053004 50 5 4.0 16.0 0.00 0.45 0.00 95 1013.2
20260505052505 50 4 3.0 12.0 0.00 0.45 0.00 95 1012.9
20260505052004 49 21 2.0 12.0 0.00 0.45 0.00 95 1013.1
20260505051505 49 19 2.0 14.0 0.00 0.45 0.00 94 1013.1
20260505051003 49 14 2.0 14.0 0.00 0.45 0.00 94 1012.9
20260505050505 49 36 2.0 12.0 0.00 0.45 0.00 94 1013.0
20260505041505 50 27 1.0 7.0 0.00 0.46 0.00 93 1012.9
20260505041003 51 25 2.0 7.0 0.00 0.46 0.00 93 1012.8
20260505040503 51 41 2.0 7.0 0.00 0.46 0.00 92 1012.7
20260505040005 51 34 1.0 9.0 0.00 0.46 0.00 92 1012.8
20260505035505 51 30 1.0 9.0 0.00 0.46 0.00 92 1012.9
20260505035222 51 28 1.0 9.0 0.00 0.46 0.00 92 1012.7
20260505034719 51 22 0.0 7.0 0.00 0.46 0.00 92 1012.9
20260505034005 51 37 0.0 4.0 0.00 0.46 0.00 91 1012.8
20260505033503 51 40 1.0 4.0 0.00 0.46 0.00 91 1012.6
20260505033217 51 35 1.0 4.0 0.00 0.46 0.00 91 1012.6
20260505032503 51 30 1.0 9.0 0.00 0.46 0.00 91 1012.8
20260505032007 51 24 1.0 9.0 0.00 0.46 0.00 92 1012.7
20260505031505 51 27 0.0 7.0 0.00 0.46 0.00 92 1012.7
20260505031003 51 29 0.0 2.0 0.00 0.46 0.00 92 1012.5
20260505030505 51 0 0.0 0.0 0.00 0.46 0.00 92 1012.8
20260505030005 51 38 0.0 2.0 0.00 0.46 0.00 92 1012.5
20260505025505 52 43 0.0 4.0 0.00 0.46 0.00 92 1012.6
20260505025005 52 50 1.0 7.0 0.00 0.46 0.00 92 1012.6
20260505024503 52 48 1.0 7.0 0.00 0.46 0.00 92 1012.5
20260505024003 52 55 2.0 7.0 0.00 0.46 0.00 92 1012.6
20260505023505 52 65 1.0 7.0 0.00 0.46 0.00 93 1012.7
20260505023003 51 70 0.0 7.0 0.00 0.46 0.00 93 1012.8
20260505022718 51 52 0.0 4.0 0.00 0.46 0.00 93 1012.6
20260505022003 51 45 1.0 7.0 0.00 0.46 0.00 93 1012.8
20260505021505 51 24 1.0 7.0 0.00 0.46 0.00 93 1012.7
20260505021219 51 11 1.0 7.0 0.00 0.46 0.00 93 1012.4
20260505020506 51 38 0.0 2.0 0.00 0.46 0.00 93 1012.7
20260505020217 51 38 0.0 2.0 0.00 0.46 0.00 93 1012.3
20260505015505 51 45 0.0 2.0 0.00 0.46 0.00 93 1012.6
20260505015005 51 40 0.0 4.0 0.00 0.46 0.00 93 1012.6
20260505014505 51 30 1.0 4.0 0.00 0.46 0.00 93 1012.6
20260505014003 51 35 1.0 4.0 0.00 0.46 0.00 93 1012.8
20260505013503 51 50 1.0 7.0 0.00 0.46 0.00 93 1012.8
20260505013005 51 39 2.0 7.0 0.00 0.46 0.00 93 1012.8
20260505012503 51 33 2.0 7.0 0.00 0.46 0.00 93 1012.7
20260505012221 51 32 1.0 7.0 0.00 0.46 0.00 93 1012.8
20260505011720 50 0 0.0 0.0 0.00 0.46 0.00 93 1012.9
20260505011003 50 9 0.0 4.0 0.00 0.46 0.00 93 1012.9
20260505010503 50 7 1.0 4.0 0.00 0.46 0.00 93 1013.1
20260505010219 50 27 0.0 7.0 0.00 0.46 0.00 93 1012.8
20260505005503 50 47 0.0 7.0 0.00 0.46 0.00 93 1013.2
20260505005219 50 87 0.0 7.0 0.00 0.46 0.00 93 1013.1
20260505004503 50 0 0.0 0.0 0.00 0.46 0.00 93 1012.9
20260505004005 50 0 0.0 0.0 0.00 0.46 0.00 93 1013.1
20260505003503 50 0 0.0 0.0 0.00 0.46 0.00 93 1013.3
20260505003003 50 0 0.0 0.0 0.00 0.46 0.00 92 1013.2
20260505002503 50 0 0.0 0.0 0.00 0.47 0.00 92 1013.0
20260505002005 50 0 0.0 0.0 0.00 0.47 0.00 92 1013.0
20260505001503 50 0 0.0 0.0 0.00 0.47 0.00 92 1013.1
20260505001005 50 0 0.0 0.0 0.00 0.47 0.00 92 1013.3
20260505000503 50 0 0.0 0.0 0.00 0.48 0.00 92 1013.2
20260505000219 50 0 0.0 0.0 0.00 0.48 0.00 92 1013.2
20260504235505 51 0 0.0 0.0 0.00 0.49 0.00 91 1013.3
20260504235003 51 0 0.0 0.0 0.00 0.50 0.00 91 1013.1
20260504234503 51 0 0.0 0.0 0.00 0.50 0.00 91 1013.2
20260504234003 51 0 0.0 0.0 0.00 0.51 0.00 91 1013.1
20260504233505 51 0 0.0 0.0 0.00 0.51 0.00 91 1013.2
20260504233003 51 0 0.0 0.0 0.00 0.51 0.00 91 1013.4
20260504232505 51 0 0.0 0.0 0.00 0.52 0.00 91 1013.4
20260504232003 51 0 0.0 0.0 0.00 0.52 0.00 90 1013.0
20260504231505 51 353 0.0 2.0 0.00 0.52 0.00 90 1013.2
20260504231005 51 44 0.0 7.0 0.00 0.52 0.00 89 1013.2
20260504230719 51 45 1.0 7.0 0.00 0.52 0.00 89 1013.0
20260504230004 51 17 1.0 12.0 0.00 0.52 0.00 89 1013.5
20260504225503 51 47 0.0 4.0 0.00 0.52 0.52 89 1013.2
20260504225003 51 28 1.0 7.0 0.00 0.52 0.52 89 1013.4
20260504224719 51 23 1.0 7.0 0.00 0.52 0.52 89 1013.2
20260504224003 51 50 0.0 4.0 0.00 0.52 0.52 88 1013.4
20260504223719 51 32 0.0 7.0 0.00 0.52 0.52 88 1013.3
20260504223005 51 38 2.0 7.0 0.00 0.52 0.52 88 1013.4
20260504222505 51 44 1.0 7.0 0.00 0.52 0.52 88 1013.3
20260504222005 51 28 1.0 12.0 0.00 0.52 0.52 88 1013.6
20260504221503 51 16 2.0 14.0 0.00 0.52 0.52 88 1013.4
20260504221004 51 16 3.0 14.0 0.00 0.52 0.52 88 1013.4
20260504220504 51 38 2.0 12.0 0.00 0.52 0.52 89 1013.3
20260504220006 51 42 3.0 12.0 0.00 0.52 0.52 89 1013.5
20260504215503 51 35 4.0 16.0 0.00 0.52 0.52 90 1013.5
20260504215005 51 37 3.0 16.0 0.00 0.52 0.52 90 1013.3
20260504214716 51 33 3.0 16.0 0.00 0.52 0.52 91 1013.6
20260504214005 51 29 2.0 14.0 0.00 0.52 0.52 91 1013.7
20260504213718 51 28 4.0 14.0 0.00 0.52 0.52 91 1013.7
20260504213005 51 32 4.0 12.0 0.00 0.52 0.52 92 1013.6
20260504212505 51 29 2.0 12.0 0.00 0.52 0.52 92 1013.9
20260504212005 51 32 2.0 12.0 0.00 0.52 0.52 92 1013.6
20260504211505 51 45 2.0 9.0 0.00 0.52 0.52 92 1013.3
20260504211010 51 34 2.0 9.0 0.00 0.52 0.52 92 1013.5
20260504210504 51 43 1.0 9.0 0.00 0.52 0.52 92 1013.4
20260504210005 51 32 1.0 14.0 0.00 0.52 0.52 93 1013.5
20260504205503 51 22 2.0 14.0 0.00 0.52 0.52 93 1013.6
20260504205003 51 24 3.0 14.0 0.00 0.52 0.52 93 1013.5
20260504204718 51 16 2.0 9.0 0.00 0.52 0.52 93 1013.4
20260504204005 51 5 1.0 12.0 0.00 0.52 0.52 93 1013.6
20260504203503 51 49 3.0 16.0 0.00 0.52 0.52 93 1013.5
20260504203005 51 44 3.0 16.0 0.01 0.52 0.52 93 1013.3
20260504202504 51 20 2.0 9.0 0.01 0.52 0.52 93 1013.4
20260504202005 51 15 2.0 9.0 0.01 0.52 0.52 93 1013.4
20260504201503 51 18 3.0 9.0 0.02 0.52 0.52 93 1013.4
20260504201003 51 40 3.0 9.0 0.02 0.52 0.52 93 1013.3
20260504200505 51 39 2.0 9.0 0.02 0.52 0.52 93 1013.2
20260504200005 51 35 3.0 12.0 0.02 0.52 0.52 93 1013.3
20260504195503 51 43 5.0 12.0 0.02 0.52 0.52 93 1013.3
20260504195005 51 47 4.0 14.0 0.02 0.52 0.52 93 1013.1
20260504194503 51 44 4.0 18.0 0.02 0.52 0.52 93 1013.1
20260504194005 52 37 4.0 18.0 0.02 0.52 0.52 92 1013.0
20260504193505 52 37 3.0 16.0 0.02 0.52 0.52 92 1012.9
20260504193217 52 42 3.0 16.0 0.01 0.51 0.51 92 1013.1
20260504192503 52 31 4.0 12.0 0.01 0.51 0.51 92 1012.8
20260504192218 52 10 3.0 12.0 0.01 0.51 0.51 92 1012.8
20260504191504 52 20 4.0 16.0 0.00 0.50 0.50 92 1012.8
20260504191005 52 30 4.0 16.0 0.00 0.50 0.50 92 1013.0
20260504190504 52 37 3.0 16.0 0.00 0.50 0.50 92 1012.9
20260504190005 52 29 5.0 16.0 0.00 0.50 0.50 91 1012.6
20260504185505 52 40 5.0 16.0 0.00 0.50 0.50 91 1012.7
20260504185005 52 48 6.0 16.0 0.00 0.50 0.50 91 1012.6
20260504184720 52 34 7.0 16.0 0.00 0.50 0.50 91 1012.7
20260504184005 52 22 7.0 25.0 0.00 0.50 0.50 91 1012.8
20260504183503 53 24 7.0 25.0 0.00 0.50 0.50 91 1012.5
20260504183003 53 16 5.0 16.0 0.00 0.50 0.50 91 1012.5
20260504182505 53 13 5.0 14.0 0.00 0.50 0.50 91 1012.6
20260504182003 53 7 7.0 16.0 0.00 0.50 0.50 91 1012.4
20260504181717 53 22 6.0 16.0 0.00 0.50 0.50 91 1012.5
20260504181005 53 40 6.0 18.0 0.00 0.50 0.50 91 1012.6
20260504180505 53 33 6.0 21.0 0.00 0.50 0.50 90 1012.6
20260504180003 53 23 7.0 21.0 0.00 0.50 0.50 91 1012.4
20260504175505 53 34 7.0 21.0 0.00 0.50 0.50 91 1012.4
20260504175003 53 34 6.0 21.0 0.00 0.50 0.50 91 1012.4
20260504174719 53 30 6.0 18.0 0.00 0.50 0.50 92 1012.6
20260504174005 53 24 7.0 16.0 0.00 0.50 0.50 92 1012.5
20260504173717 53 12 7.0 16.0 0.00 0.50 0.50 92 1012.7
20260504173005 53 32 4.0 18.0 0.00 0.50 0.50 92 1012.7
20260504172503 53 24 5.0 18.0 0.00 0.50 0.50 92 1012.7
20260504172003 53 7 6.0 16.0 0.00 0.50 0.50 92 1012.6
20260504171503 53 22 5.0 16.0 0.00 0.50 0.50 93 1012.7
20260504171004 53 42 5.0 16.0 0.00 0.50 0.50 93 1012.7
20260504170505 53 34 4.0 16.0 0.00 0.50 0.50 93 1012.7
20260504151005 56 47 0.0 2.0 0.02 0.41 0.41 92 1012.7
20260504150505 56 67 0.0 4.0 0.03 0.41 0.41 92 1012.6
20260504141005 56 232 0.0 4.0 0.01 0.40 0.39 90 1012.5
20260504140505 57 249 0.0 4.0 0.00 0.39 0.38 90 1012.5
20260504130723 56 154 1.0 4.0 0.06 0.39 0.38 93 1012.7